Weather History for Taunton, MA

Change the Weather History Date:

Monday, December 10, 2012

  Actual Average Record
Temperature  
Mean Temperature 52 °F -  
Max Temperature 62 °F 41 °F 64 °F (1991)
Min Temperature 43 °F 24 °F -4 °F (1958)
Degree Days  
Heating Degree Days 12    
Growing Degree Days 2 (Base 50)    
Moisture  
Dew Point 54 °F    
Average Humidity 91    
Maximum Humidity 97    
Minimum Humidity 86    
Precipitation  
Precipitation 1.21 in - - ()
Sea Level Pressure  
Sea Level Pressure 29.72 in    
Wind  
Wind Speed 7 mph (SSW)    
Max Wind Speed 14 mph    
Max Gust Speed 33 mph    
Visibility 6 miles    
Events Rain , Thunderstorm    
Averages and records for this station are not official NWS values.
T = Trace of Precipitation, MM = Missing Value Source: NWS Daily Summary

Daily Weather History Graph

Daily Weather History Graph

Search for Another Location

Airport:

Trip Planner

Search our weather history database for the weather conditions in past years. The results will help you decide how hot, cold, wet, or windy it might be!

Date:

Astronomy

Dec. 10, 2012 Rise Set
Actual Time 7:01 AM EST 4:13 PM EST
Civil Twilight 6:29 AM EST 4:44 PM EST
Nautical Twilight 5:54 AM EST 5:19 PM EST
Astronomical Twilight 5:20 AM EST 5:53 PM EST
Moon 3:39 AM EST (12/10) 2:01 PM EST (12/10)
Length of Visible Light 10h 14m
Length of Day
9h 11m
Waning Crescent, 10% of the Moon is Illuminated
Dec 10
Waning Crescent
Dec 13
New
Dec 20
First Quarter
Dec 28
Full
Jan 4
Last Quarter

Hourly Weather History & Observations

Time (EST) Temp. Windchill Dew Point Humidity Pressure Visibility Wind Dir Wind Speed Gust Speed Precip Events Conditions
12:02 AM 43.0 °F 41.3 °F 39.9 °F 89% 30.13 in 5.0 mi East 3.5 mph - 0.01 in Rain Light Rain
12:52 AM 44.1 °F 41.5 °F 41.0 °F 89% 30.09 in 10.0 mi East 4.6 mph - 0.03 in Rain Light Rain
1:52 AM 45.0 °F 43.5 °F 42.1 °F 90% 30.06 in 3.0 mi Variable 3.5 mph - 0.10 in Rain Rain
2:00 AM 45.0 °F 43.5 °F 42.1 °F 90% 30.06 in 2.0 mi Variable 3.5 mph - 0.05 in Rain Heavy Rain
2:30 AM 44.1 °F 42.5 °F 42.1 °F 93% 30.04 in 4.0 mi ENE 3.5 mph - 0.18 in Rain Rain
2:49 AM 44.6 °F 42.2 °F 42.8 °F 93% 30.02 in 7.0 mi East 4.6 mph - 0.20 in Rain Light Rain
2:52 AM 45.0 °F 43.5 °F 42.1 °F 90% 30.02 in 6.0 mi East 3.5 mph - 0.20 in Rain Light Rain
3:16 AM 45.0 °F 42.6 °F 42.1 °F 90% 29.99 in 5.0 mi East 4.6 mph - 0.01 in Rain Light Rain
3:41 AM 45.0 °F 41.8 °F 43.0 °F 93% 29.97 in 6.0 mi East 5.8 mph - 0.02 in Rain Light Rain
3:52 AM 45.0 °F 42.6 °F 43.0 °F 93% 29.96 in 6.0 mi East 4.6 mph - 0.02 in Rain Light Rain
4:48 AM 46.4 °F 43.5 °F 44.6 °F 93% 29.91 in 7.0 mi SE 5.8 mph - 0.00 in   Overcast
4:52 AM 46.9 °F - 44.1 °F 90% 29.90 in 8.0 mi East 5.8 mph - 0.00 in   Overcast
5:52 AM 50.0 °F - 48.0 °F 93% 29.87 in 7.0 mi SSE 4.6 mph - 0.01 in   Overcast
6:24 AM 52.0 °F - 51.1 °F 97% 29.84 in 6.0 mi South 3.5 mph - 0.02 in Rain Light Rain
6:49 AM 55.4 °F - 53.6 °F 94% 29.83 in 4.0 mi SSW 6.9 mph - 0.07 in Rain Light Rain
6:52 AM 57.0 °F - 54.0 °F 89% 29.83 in 5.0 mi South 6.9 mph - 0.07 in Rain Light Rain
6:59 AM 57.0 °F - 54.0 °F 89% 29.83 in 6.0 mi SSW 8.1 mph - 0.00 in Rain Light Rain
7:52 AM 59.0 °F - 57.0 °F 93% 29.82 in 4.0 mi SSW 6.9 mph 19.6 mph 0.04 in Rain Light Rain
8:11 AM 60.1 °F - 57.0 °F 90% 29.81 in 10.0 mi SSW 9.2 mph 20.7 mph 0.00 in Rain Light Rain
8:28 AM 60.1 °F - 57.0 °F 90% 29.81 in 10.0 mi SSW 10.4 mph - 0.00 in   Overcast
8:52 AM 60.1 °F - 57.0 °F 90% 29.81 in 10.0 mi SSW 9.2 mph - 0.00 in   Overcast
9:52 AM 60.1 °F - 57.0 °F 90% 29.80 in 10.0 mi SSW 9.2 mph - N/A   Overcast
11:34 AM 60.1 °F - 57.9 °F 93% 29.73 in 2.5 mi SW 10.4 mph 19.6 mph N/A   Mist
11:50 AM 60.8 °F - 57.2 °F 88% 29.73 in 3.0 mi SSW 9.2 mph 17.3 mph 0.00 in Rain Light Rain
11:52 AM 60.1 °F - 57.9 °F 93% 29.73 in 3.0 mi SSW 9.2 mph 17.3 mph 0.00 in Rain Light Rain
12:01 PM 60.1 °F - 57.9 °F 93% 29.72 in 1.8 mi SSW 10.4 mph 24.2 mph 0.04 in Rain Rain
12:11 PM 60.1 °F - 57.0 °F 90% 29.71 in 2.5 mi SSW 9.2 mph - 0.07 in Rain Light Rain
12:18 PM 60.1 °F - 57.9 °F 93% 29.71 in 4.0 mi SSW 9.2 mph - 0.08 in Rain Rain
12:28 PM 60.1 °F - 57.0 °F 90% 29.71 in 6.0 mi SW 10.4 mph - 0.09 in Rain , Thunderstorm Light Rain
12:37 PM 60.1 °F - 57.0 °F 90% 29.70 in 2.5 mi SSW 12.7 mph 19.6 mph 0.13 in Rain Heavy Rain
12:45 PM 60.1 °F - 57.9 °F 93% 29.69 in 4.0 mi SSW 5.8 mph 19.6 mph 0.14 in Rain Light Rain
12:52 PM 60.1 °F - 57.9 °F 93% 29.69 in 8.0 mi South 8.1 mph - 0.15 in Rain Light Rain
1:14 PM 61.0 °F - 57.9 °F 90% 29.67 in 2.5 mi SSW 10.4 mph - 0.09 in Rain Rain
1:17 PM 61.0 °F - 57.9 °F 90% 29.66 in 4.0 mi SSW 9.2 mph - 0.09 in Rain Rain
1:34 PM 62.1 °F - 57.9 °F 86% 29.67 in 10.0 mi South 6.9 mph - 0.09 in   Mostly Cloudy
1:47 PM 60.8 °F - 57.2 °F 88% 29.67 in 9.0 mi South 10.4 mph 19.6 mph 0.09 in   Mostly Cloudy
1:48 PM 61.0 °F - 57.9 °F 90% 29.67 in 8.0 mi SSW 10.4 mph - 0.10 in   Mostly Cloudy
2:08 PM 62.1 °F - 57.9 °F 86% 29.64 in 3.0 mi South 9.2 mph - 0.03 in Rain Rain
2:15 PM 62.1 °F - 57.9 °F 86% 29.64 in 8.0 mi SSW 11.5 mph 17.3 mph 0.03 in Rain Light Rain
2:34 PM 62.1 °F - 57.9 °F 86% 29.64 in 3.0 mi SSW 9.2 mph 20.7 mph 0.06 in Rain Heavy Rain
2:37 PM 62.1 °F - 57.9 °F 86% 29.64 in 2.0 mi SW 10.4 mph 20.7 mph 0.07 in Rain Heavy Rain
2:45 PM 62.1 °F - 59.0 °F 90% 29.64 in 3.0 mi SSW 9.2 mph 18.4 mph 0.07 in Rain Light Rain
2:52 PM 62.1 °F - 59.0 °F 90% 29.64 in 2.5 mi SSW 10.4 mph 18.4 mph 0.08 in Rain Rain
3:03 PM 62.1 °F - 59.0 °F 90% 29.64 in 4.0 mi SSW 12.7 mph 21.9 mph 0.01 in Rain Light Rain
3:37 PM 61.0 °F - 57.9 °F 90% 29.62 in 2.5 mi SSW 11.5 mph 33.4 mph 0.02 in Rain Light Rain
3:48 PM 60.8 °F - 57.2 °F 88% 29.62 in 4.0 mi SSW 12.7 mph 25.3 mph 0.02 in Rain Light Rain
3:52 PM 61.0 °F - 57.9 °F 90% 29.62 in 4.0 mi SSW 13.8 mph 25.3 mph 0.02 in Rain Light Rain
4:22 PM 61.0 °F - 57.9 °F 90% 29.60 in 5.0 mi SSW 10.4 mph 21.9 mph 0.01 in Rain Light Rain
4:52 PM 61.0 °F - 57.9 °F 90% 29.59 in 9.0 mi SSW 12.7 mph 24.2 mph 0.02 in   Overcast
5:04 PM 60.1 °F - 57.9 °F 93% 29.59 in 4.0 mi SSW 10.4 mph 19.6 mph 0.00 in Rain Light Rain
5:16 PM 61.0 °F - 57.9 °F 90% 29.58 in 2.0 mi SSW 8.1 mph 18.4 mph 0.08 in Rain Heavy Rain
5:24 PM 61.0 °F - 57.9 °F 90% 29.58 in 3.0 mi SSW 3.5 mph - 0.10 in Rain Heavy Rain
5:47 PM 60.8 °F - 57.2 °F 88% 29.57 in 2.5 mi SSW 9.2 mph 17.3 mph 0.18 in Rain Rain
5:52 PM 61.0 °F - 57.9 °F 90% 29.56 in 2.5 mi SW 8.1 mph - 0.19 in Rain Heavy Rain
6:13 PM 60.1 °F - 57.9 °F 93% 29.56 in 2.5 mi SW 8.1 mph - 0.07 in Rain Rain
6:20 PM 61.0 °F - 57.9 °F 90% 29.55 in 5.0 mi WSW 5.8 mph - 0.08 in Rain Light Rain
6:40 PM 60.1 °F - 57.9 °F 93% 29.55 in 2.5 mi Variable 4.6 mph - 0.13 in Rain Rain
6:48 PM 60.8 °F - 57.2 °F 88% 29.54 in 3.0 mi SW 6.9 mph - 0.16 in Rain Rain
6:52 PM 60.1 °F - 57.9 °F 93% 29.55 in 3.0 mi SW 8.1 mph - 0.17 in Rain Heavy Rain
7:06 PM 60.1 °F - 57.9 °F 93% 29.53 in 9.0 mi SSW 8.1 mph - 0.01 in Rain Light Rain
7:52 PM 60.1 °F - 57.0 °F 90% 29.52 in 10.0 mi SW 5.8 mph - 0.01 in   Overcast
8:23 PM 59.0 °F - 57.0 °F 93% 29.51 in 10.0 mi SSW 5.8 mph - 0.00 in   Overcast
8:52 PM 59.0 °F - 57.0 °F 93% 29.52 in 10.0 mi South 4.6 mph - 0.00 in   Overcast
9:04 PM 59.0 °F - 57.0 °F 93% 29.52 in 10.0 mi SSW 5.8 mph - N/A   Overcast
9:52 PM 59.0 °F - 55.9 °F 90% 29.52 in 10.0 mi SSW 5.8 mph - N/A   Overcast
10:20 PM 57.9 °F - 55.9 °F 93% 29.52 in 10.0 mi SSW 6.9 mph - N/A   Mostly Cloudy
10:52 PM 57.9 °F - 55.0 °F 90% 29.53 in 10.0 mi SSW 5.8 mph - N/A   Overcast
11:52 PM 57.9 °F - 55.0 °F 90% 29.54 in 9.0 mi SSW 9.2 mph - N/A   Overcast